User: anonymous   Login
Location: Unspecified
(0.0000°N, 0.0000°E)
Time: 15:07:31
(UTC+00:00)
Language:

AEROCUBE 6A - Orbit

View from above orbital plane
View from above orbital plane
View from above satellite
View from above satellite

Ground track
Ground track

The orbit data is extracted from the following two-line orbital elements,

1 40045U 14033AM  19078.61732507 +.00000258 +00000-0 +44437-4 0  9991
2 40045 097.7925 313.6398 0058814 025.1669 335.2386 14.75331266254898
Epoch (UTC): 19 March 2019 14:48:56
Eccentricity: 0.0058814
inclination: 97.7925°
perigee height: 603 km
apogee height: 685 km
right ascension of ascending node: 313.6398°
argument of perigee: 25.1669°
revolutions per day: 14.75331266
mean anomaly at epoch: 335.2386°
orbit number at epoch: 25489

The dashed part of the orbit path shows where the satellite is in the earth's shadow,  

DLR